User: anonymous   Login
Location: Trois-Rivi�res
(46.3500°N, 72.5500°W)
Time: 01:32:53
(UTC-05:00)
Language:

Cosmos 1544 - Orbit

View from above orbital plane
View from above orbital plane
View from above satellite
View from above satellite

Ground track
Ground track

The orbit data is extracted from the following two-line orbital elements,

1 14819U 84027A   15027.00221545  .00006484  00000-0  29960-3 0  1306
2 14819 082.4876 181.3737 0016163 218.2450 281.5375 15.19890635683004
Epoch (UTC): 27 January 2015 00:03:11
Eccentricity: 0.0016163
inclination: 82.4876°
perigee height: 495 km
apogee height: 517 km
right ascension of ascending node: 181.3737°
argument of perigee: 218.2450°
revolutions per day: 15.19890635
mean anomaly at epoch: 281.5375°
orbit number at epoch: 68300

The dashed part of the orbit path shows where the satellite is in the earth's shadow,  

DLR